World > North America > United States > New York

Hourly Stella Niagara, NY Regional Weather

Feedback E-mail the Weather

Latest News

Stella Niagara, NY Weather Maps

°F °C°F °C
Stella Niagara Weather Map
UTC Time: 5/27/2022, 05:49
Your Time:

Stella Niagara, NY Regional Weather

Expires:202205270600;;634552
ASUS41 KALY 270510
RWRALY

NEW YORK STATE HOURLY WEATHER ROUNDUP
NATIONAL WEATHER SERVICE ALBANY NY
100 AM EDT FRI MAY 27 2022

NOTE: "FAIR" INDICATES FEW OR NO CLOUDS BELOW 12,000 FEET WITH NO
SIGNIFICANT WEATHER AND/OR NO OBSTRUCTIONS TO VISIBILITY.


NYZ001>004-010>016-019>021-085-270600-
WEST

  
CITY           SKY/WX    TMP DP  RH WIND       PRES   REMARKS
NIAGARA FALLS  MOCLDY    69  63  81 S12       29.82F                  
BUFFALO        CLOUDY    68  63  84 S15       29.83F                  
DUNKIRK        LGT RAIN  70  65  84 S17G23    29.84S                  
JAMESTOWN      LGT RAIN  64  63  96 S7        29.91F FOG              
WELLSVILLE     CLOUDY    64  59  83 S12G21    29.96F                  
ROCHESTER      CLOUDY    69  61  75 S13       29.86F                  
PENN YAN       CLOUDY    68  58  70 SW12G24   29.92F                  
$$

             KEY
       WCI = WIND CHILL INDEX
       VSB = VISIBILITY
       HX  = HEAT INDEX
$$
  

SKY/WX - Weather  TMP - Temperature  DP - Dew Point  RH - Humidity
WIND - Wind Direction/Speed PRES - Barometric Pressure VSB - Visibility
WCI - Wind Chill Index E13G22 Wind - East Wind 13 mph/Gusts of 22 mph

Trending Headlines

Stella Niagara Radar Loop



Stella Niagara Quick Facts


National Two Day Weather Forecast


E-mail the Stella Niagara Weather Forecast

Voice your opinion or tell us about page issues...